User: anonymous   Login
Location: Abyssinia Baptist Church
(32.7840°N, 96.7578°W)
Time: 14:01:16
(UTC+00:00)
Language:

SJ 16-02 - Orbit

View from above orbital plane
View from above orbital plane
View from above satellite
View from above satellite

Ground track
Ground track

The orbit data is extracted from the following two-line orbital elements,

1 41634U 16043A   22142.17544913  .00001529  00000-0  17729-3 0  9993
2 41634  75.0035 196.6553 0006981  34.3293 325.8333 14.86142611319759
Epoch (UTC): 22 May 2022 04:12:38
Eccentricity: 0.0006981
inclination: 75.0035°
perigee height: 605 km
apogee height: 615 km
right ascension of ascending node: 196.6553°
argument of perigee: 34.3293°
revolutions per day: 14.86142611
mean anomaly at epoch: 325.8333°
orbit number at epoch: 31975

The dashed part of the orbit path shows where the satellite is in the earth's shadow,  

DLR